Location: Newark
(45.2500°N, 7.5833°E)
Time: 17:38:37
(UTC+00:00)

A-11 Canister half - Pass Details

Date: 27 January 2020
Orbit: 1524 x 1684 km, 47.3° (Epoch: 22 February)

Event Time Altitude Azimuth Distance (km) Brightness Sun altitude
Rises 21:44:04 0° 291° (WNW) 4,733 12.1 -53.6°
Reaches altitude 10° 21:47:07 10° 289° (WNW) 3,766 11.4 -54.1°
Enters shadow 21:50:10 24° 285° (WNW) 2,843 10.6 -54.5°
Maximum altitude 21:56:36 70° 208° (SSW) 1,691 - -55.3°
Drops below altitude 10° 22:06:25 10° 128° (SE) 3,883 - -56.6°
Sets 22:09:36 0° 126° (SE) 4,886 - -57.0°
